Time,TemperatureF,DewpointF,PressureIn,WindDirection,WindDirectionDegrees,WindSpeedMPH,WindSpeedGustMPH,Humidity,HourlyPrecipIn,Conditions,Clouds,dailyrainin,SoftwareType,DateUTC
2013-06-25 00:01:00,73.1,70.3,30.10,SW,232,3.0,3.0,91,0.00,,,0.00,Wunderground v.1.15,2013-06-25 04:01:00,
2013-06-25 00:11:00,73.1,70.3,30.09,SW,219,4.0,4.0,91,0.00,,,0.00,Wunderground v.1.15,2013-06-25 04:11:00,
2013-06-25 00:21:00,73.1,70.3,30.10,SW,229,4.0,4.0,91,0.00,,,0.00,Wunderground v.1.15,2013-06-25 04:21:00,
2013-06-25 00:31:00,73.0,70.5,30.09,SSW,207,3.0,3.0,92,0.00,,,0.00,Wunderground v.1.15,2013-06-25 04:31:00,
2013-06-25 00:41:00,73.0,70.5,30.09,SW,229,3.0,3.0,92,0.00,,,0.00,Wunderground v.1.15,2013-06-25 04:41:00,
2013-06-25 00:51:00,73.0,70.5,30.09,SW,227,3.0,3.0,92,0.00,,,0.00,Wunderground v.1.15,2013-06-25 04:51:00,
2013-06-25 01:01:00,73.0,70.5,30.09,SW,221,2.0,2.0,92,0.00,,,0.00,Wunderground v.1.15,2013-06-25 05:01:00,
2013-06-25 01:11:00,72.9,70.4,30.09,SW,220,1.0,2.0,92,0.00,,,0.00,Wunderground v.1.15,2013-06-25 05:11:00,
2013-06-25 01:21:00,72.8,70.3,30.09,SW,227,1.0,2.0,92,0.00,,,0.00,Wunderground v.1.15,2013-06-25 05:21:00,
2013-06-25 01:31:00,72.6,70.5,30.09,SSW,209,1.0,3.0,93,0.00,,,0.00,Wunderground v.1.15,2013-06-25 05:31:00,
2013-06-25 01:41:00,72.5,70.4,30.09,SW,236,2.0,4.0,93,0.00,,,0.00,Wunderground v.1.15,2013-06-25 05:41:00,
2013-06-25 01:51:00,72.3,70.2,30.08,SW,235,3.0,4.0,93,0.00,,,0.00,Wunderground v.1.15,2013-06-25 05:51:00,
2013-06-25 02:01:00,72.2,70.4,30.09,SW,222,3.0,3.0,94,0.00,,,0.00,Wunderground v.1.15,2013-06-25 06:01:00,
2013-06-25 02:11:00,72.2,70.4,30.08,SW,223,3.0,4.0,94,0.00,,,0.00,Wunderground v.1.15,2013-06-25 06:11:00,
2013-06-25 02:21:00,72.1,70.3,30.08,WSW,240,4.0,4.0,94,0.00,,,0.00,Wunderground v.1.15,2013-06-25 06:21:00,
2013-06-25 02:31:00,72.0,70.2,30.08,West,260,3.0,4.0,94,0.00,,,0.00,Wunderground v.1.15,2013-06-25 06:31:00,
2013-06-25 02:41:00,71.9,70.1,30.07,SW,215,2.0,2.0,94,0.00,,,0.00,Wunderground v.1.15,2013-06-25 06:41:00,
2013-06-25 02:51:00,71.9,70.1,30.07,West,271,1.0,1.0,94,0.00,,,0.00,Wunderground v.1.15,2013-06-25 06:51:00,
2013-06-25 03:01:00,71.7,69.9,30.07,West,271,0.0,0.0,94,0.00,,,0.00,Wunderground v.1.15,2013-06-25 07:01:00,
2013-06-25 03:11:00,71.4,69.6,30.07,West,271,0.0,0.0,94,0.00,,,0.00,Wunderground v.1.15,2013-06-25 07:11:00,
2013-06-25 03:21:00,71.2,69.4,30.07,West,271,0.0,0.0,94,0.00,,,0.00,Wunderground v.1.15,2013-06-25 07:21:00,
2013-06-25 03:31:00,71.0,69.2,30.07,West,271,0.0,0.0,94,0.00,,,0.00,Wunderground v.1.15,2013-06-25 07:31:00,
2013-06-25 03:41:00,70.9,69.4,30.07,West,271,0.0,0.0,95,0.00,,,0.00,Wunderground v.1.15,2013-06-25 07:41:00,
2013-06-25 03:51:00,70.8,69.3,30.07,West,269,0.0,0.0,95,0.00,,,0.00,Wunderground v.1.15,2013-06-25 07:51:00,
2013-06-25 04:01:00,70.8,69.3,30.07,West,269,0.0,0.0,95,0.00,,,0.00,Wunderground v.1.15,2013-06-25 08:01:00,
2013-06-25 04:11:00,70.8,69.3,30.07,West,269,0.0,0.0,95,0.00,,,0.00,Wunderground v.1.15,2013-06-25 08:11:00,
2013-06-25 04:21:00,70.6,69.1,30.07,West,269,0.0,0.0,95,0.00,,,0.00,Wunderground v.1.15,2013-06-25 08:21:00,
2013-06-25 04:31:00,70.4,68.9,30.07,West,269,0.0,0.0,95,0.00,,,0.00,Wunderground v.1.15,2013-06-25 08:31:00,
2013-06-25 04:41:00,70.3,68.8,30.06,West,269,0.0,0.0,95,0.00,,,0.00,Wunderground v.1.15,2013-06-25 08:41:00,
2013-06-25 04:51:00,70.2,68.7,30.07,West,269,0.0,0.0,95,0.00,,,0.00,Wunderground v.1.15,2013-06-25 08:51:00,
2013-06-25 05:01:00,70.1,68.6,30.07,West,269,0.0,0.0,95,0.00,,,0.00,Wunderground v.1.15,2013-06-25 09:01:00,
2013-06-25 05:11:00,70.0,68.5,30.07,SW,229,1.0,1.0,95,0.00,,,0.00,Wunderground v.1.15,2013-06-25 09:11:00,
2013-06-25 05:21:00,70.0,68.8,30.07,SW,220,2.0,4.0,96,0.00,,,0.00,Wunderground v.1.15,2013-06-25 09:21:00,
2013-06-25 05:31:00,70.0,68.8,30.07,SSW,196,2.0,2.0,96,0.00,,,0.00,Wunderground v.1.15,2013-06-25 09:31:00,
2013-06-25 05:41:00,69.9,68.4,30.07,WSW,255,1.0,3.0,95,0.00,,,0.00,Wunderground v.1.15,2013-06-25 09:41:00,
2013-06-25 05:51:00,70.0,68.5,30.07,SSW,213,2.0,2.0,95,0.00,,,0.00,Wunderground v.1.15,2013-06-25 09:51:00,
2013-06-25 06:01:00,69.9,68.4,30.08,SSW,209,1.0,1.0,95,0.00,,,0.00,Wunderground v.1.15,2013-06-25 10:01:00,
2013-06-25 06:11:00,69.9,68.4,30.08,SSW,199,1.0,1.0,95,0.00,,,0.00,Wunderground v.1.15,2013-06-25 10:11:00,
2013-06-25 06:21:00,69.9,68.4,30.08,WSW,239,0.0,2.0,95,0.00,,,0.00,Wunderground v.1.15,2013-06-25 10:21:00,
2013-06-25 06:31:00,69.9,68.4,30.08,SSW,211,2.0,2.0,95,0.00,,,0.00,Wunderground v.1.15,2013-06-25 10:31:00,
2013-06-25 06:41:00,69.9,68.4,30.08,SW,231,3.0,3.0,95,0.00,,,0.00,Wunderground v.1.15,2013-06-25 10:41:00,
2013-06-25 06:51:00,70.1,68.3,30.08,SW,219,2.0,2.0,94,0.00,,,0.00,Wunderground v.1.15,2013-06-25 10:51:00,
2013-06-25 07:01:00,70.3,68.5,30.08,SSW,206,2.0,2.0,94,0.00,,,0.00,Wunderground v.1.15,2013-06-25 11:01:00,
2013-06-25 07:11:00,70.4,68.6,30.08,SW,229,2.0,2.0,94,0.00,,,0.00,Wunderground v.1.15,2013-06-25 11:11:00,
2013-06-25 07:21:00,70.4,68.6,30.08,SW,229,3.0,3.0,94,0.00,,,0.00,Wunderground v.1.15,2013-06-25 11:21:00,
2013-06-25 07:31:00,70.5,68.7,30.09,SW,229,3.0,4.0,94,0.00,,,0.00,Wunderground v.1.15,2013-06-25 11:31:00,
2013-06-25 07:41:00,71.0,69.2,30.10,SSW,213,3.0,4.0,94,0.00,,,0.00,Wunderground v.1.15,2013-06-25 11:41:00,
2013-06-25 07:51:00,71.1,69.0,30.10,SW,226,5.0,5.0,93,0.00,,,0.00,Wunderground v.1.15,2013-06-25 11:51:00,
2013-06-25 08:01:00,71.6,69.5,30.10,WSW,248,3.0,5.0,93,0.00,,,0.00,Wunderground v.1.15,2013-06-25 12:01:00,
2013-06-25 08:11:00,72.9,70.4,30.10,WSW,250,3.0,3.0,92,0.00,,,0.00,Wunderground v.1.15,2013-06-25 12:11:00,
2013-06-25 08:21:00,72.8,70.3,30.10,WSW,245,3.0,3.0,92,0.00,,,0.00,Wunderground v.1.15,2013-06-25 12:21:00,
2013-06-25 08:41:00,73.7,70.9,30.10,WSW,257,4.0,5.0,91,0.00,,,0.00,Wunderground v.1.15,2013-06-25 12:41:00,
2013-06-25 08:51:00,74.5,71.0,30.10,WSW,246,5.0,5.0,89,0.00,,,0.00,Wunderground v.1.15,2013-06-25 12:51:00,
2013-06-25 09:01:00,75.2,71.4,30.10,West,273,4.0,5.0,88,0.00,,,0.00,Wunderground v.1.15,2013-06-25 13:01:00,
2013-06-25 09:11:00,75.8,71.7,30.10,WSW,246,4.0,4.0,87,0.00,,,0.00,Wunderground v.1.15,2013-06-25 13:11:00,
2013-06-25 09:21:00,76.8,72.3,30.10,WNW,288,2.0,2.0,86,0.00,,,0.00,Wunderground v.1.15,2013-06-25 13:21:00,
2013-06-25 09:31:00,77.2,72.0,30.10,WSW,258,5.0,5.0,84,0.00,,,0.00,Wunderground v.1.15,2013-06-25 13:31:00,
2013-06-25 09:41:00,77.8,71.5,30.10,WNW,286,4.0,4.0,81,0.00,,,0.00,Wunderground v.1.15,2013-06-25 13:41:00,
2013-06-25 09:51:00,78.5,71.8,30.10,WSW,244,3.0,3.0,80,0.00,,,0.00,Wunderground v.1.15,2013-06-25 13:51:00,
2013-06-25 10:01:00,79.1,70.9,30.10,WNW,284,4.0,4.0,76,0.00,,,0.00,Wunderground v.1.15,2013-06-25 14:01:00,
2013-06-25 10:11:00,79.9,72.4,30.10,SW,232,3.0,3.0,78,0.00,,,0.00,Wunderground v.1.15,2013-06-25 14:11:00,
2013-06-25 10:21:00,80.4,71.7,30.10,WSW,240,4.0,4.0,75,0.00,,,0.00,Wunderground v.1.15,2013-06-25 14:21:00,
2013-06-25 10:31:00,80.7,72.0,30.10,WSW,238,5.0,5.0,75,0.00,,,0.00,Wunderground v.1.15,2013-06-25 14:31:00,
2013-06-25 10:41:00,81.1,71.6,30.10,West,263,6.0,6.0,73,0.00,,,0.00,Wunderground v.1.15,2013-06-25 14:41:00,
2013-06-25 10:51:00,81.1,70.4,30.10,West,269,6.0,8.0,70,0.00,,,0.00,Wunderground v.1.15,2013-06-25 14:51:00,
2013-06-25 11:01:00,81.5,70.8,30.10,WNW,296,6.0,7.0,70,0.00,,,0.00,Wunderground v.1.15,2013-06-25 15:01:00,
2013-06-25 11:11:00,81.8,71.1,30.10,WSW,254,5.0,5.0,70,0.00,,,0.00,Wunderground v.1.15,2013-06-25 15:11:00,
2013-06-25 11:21:00,82.3,71.5,30.10,WSW,250,5.0,7.0,70,0.00,,,0.00,Wunderground v.1.15,2013-06-25 15:21:00,
2013-06-25 11:31:00,82.5,72.1,30.09,SW,215,6.0,6.0,71,0.00,,,0.00,Wunderground v.1.15,2013-06-25 15:31:00,
2013-06-25 11:41:00,82.8,72.4,30.09,SSW,192,7.0,7.0,71,0.00,,,0.00,Wunderground v.1.15,2013-06-25 15:41:00,
2013-06-25 11:51:00,83.2,72.0,30.09,SSW,202,5.0,5.0,69,0.00,,,0.00,Wunderground v.1.15,2013-06-25 15:51:00,
2013-06-25 12:01:00,83.5,70.9,30.09,SW,229,6.0,6.0,66,0.00,,,0.00,Wunderground v.1.15,2013-06-25 16:01:00,
2013-06-25 12:11:00,83.9,72.2,30.08,West,278,5.0,5.0,68,0.00,,,0.00,Wunderground v.1.15,2013-06-25 16:11:00,
2013-06-25 12:21:00,84.0,72.3,30.08,SW,232,6.0,6.0,68,0.00,,,0.00,Wunderground v.1.15,2013-06-25 16:21:00,
2013-06-25 12:31:00,84.0,73.2,30.08,SW,225,6.0,6.0,70,0.00,,,0.00,Wunderground v.1.15,2013-06-25 16:31:00,
2013-06-25 12:41:00,84.2,72.5,30.08,SW,231,6.0,6.0,68,0.00,,,0.00,Wunderground v.1.15,2013-06-25 16:41:00,
2013-06-25 12:51:00,84.9,71.8,30.07,SW,223,5.0,5.0,65,0.00,,,0.00,Wunderground v.1.15,2013-06-25 16:51:00,
2013-06-25 13:01:00,84.7,72.5,30.07,WSW,255,5.0,6.0,67,0.00,,,0.00,Wunderground v.1.15,2013-06-25 17:01:00,
2013-06-25 13:11:00,84.9,72.7,30.06,WSW,240,7.0,7.0,67,0.00,,,0.00,Wunderground v.1.15,2013-06-25 17:11:00,
2013-06-25 13:21:00,85.1,71.5,30.06,SW,232,6.0,9.0,64,0.00,,,0.00,Wunderground v.1.15,2013-06-25 17:21:00,
2013-06-25 13:31:00,85.4,71.8,30.06,SSW,211,6.0,7.0,64,0.00,,,0.00,Wunderground v.1.15,2013-06-25 17:31:00,
2013-06-25 13:41:00,85.5,70.0,30.05,SW,226,7.0,7.0,60,0.00,,,0.00,Wunderground v.1.15,2013-06-25 17:41:00,
2013-06-25 13:51:00,86.0,71.0,30.04,SW,230,6.0,8.0,61,0.00,,,0.00,Wunderground v.1.15,2013-06-25 17:51:00,
2013-06-25 14:01:00,85.6,70.1,30.04,SSE,156,5.0,5.0,60,0.00,,,0.00,Wunderground v.1.15,2013-06-25 18:01:00,
2013-06-25 14:11:00,86.4,69.4,30.04,SSW,192,6.0,6.0,57,0.00,,,0.00,Wunderground v.1.15,2013-06-25 18:11:00,
2013-06-25 14:21:00,86.6,70.6,30.03,West,263,6.0,8.0,59,0.00,,,0.00,Wunderground v.1.15,2013-06-25 18:21:00,
2013-06-25 14:31:00,85.6,69.6,30.03,SSW,211,6.0,8.0,59,0.00,,,0.00,Wunderground v.1.15,2013-06-25 18:31:00,
2013-06-25 14:41:00,85.8,70.8,30.02,West,263,5.0,8.0,61,0.00,,,0.00,Wunderground v.1.15,2013-06-25 18:41:00,
2013-06-25 14:51:00,85.8,70.3,30.01,SSW,207,8.0,9.0,60,0.00,,,0.00,Wunderground v.1.15,2013-06-25 18:51:00,
2013-06-25 15:01:00,86.5,71.9,30.01,SW,229,8.0,8.0,62,0.00,,,0.00,Wunderground v.1.15,2013-06-25 19:01:00,
2013-06-25 15:11:00,86.0,71.5,30.00,West,261,7.0,7.0,62,0.00,,,0.00,Wunderground v.1.15,2013-06-25 19:11:00,
2013-06-25 15:21:00,86.6,71.1,30.00,WSW,238,5.0,9.0,60,0.00,,,0.00,Wunderground v.1.15,2013-06-25 19:21:00,
2013-06-25 15:31:00,85.4,71.4,30.00,SW,232,6.0,9.0,63,0.00,,,0.00,Wunderground v.1.15,2013-06-25 19:31:00,
2013-06-25 15:41:00,86.5,71.9,30.00,WSW,247,6.0,8.0,62,0.00,,,0.00,Wunderground v.1.15,2013-06-25 19:41:00,
2013-06-25 15:51:00,86.0,71.9,30.00,SW,236,7.0,7.0,63,0.00,,,0.00,Wunderground v.1.15,2013-06-25 19:51:00,
2013-06-25 16:01:00,86.4,72.8,30.00,SW,219,5.0,5.0,64,0.00,,,0.00,Wunderground v.1.15,2013-06-25 20:01:00,
2013-06-25 16:11:00,86.4,73.2,30.00,WSW,244,5.0,7.0,65,0.00,,,0.00,Wunderground v.1.15,2013-06-25 20:11:00,
2013-06-25 16:21:00,86.6,72.0,30.00,SSW,207,6.0,6.0,62,0.00,,,0.00,Wunderground v.1.15,2013-06-25 20:21:00,
2013-06-25 16:31:00,86.9,72.3,30.00,SW,224,6.0,9.0,62,0.00,,,0.00,Wunderground v.1.15,2013-06-25 20:31:00,
2013-06-25 16:41:00,86.4,70.9,29.99,WSW,238,7.0,7.0,60,0.00,,,0.00,Wunderground v.1.15,2013-06-25 20:41:00,
2013-06-25 16:51:00,86.4,71.8,29.99,WSW,247,7.0,9.0,62,0.00,,,0.00,Wunderground v.1.15,2013-06-25 20:51:00,
2013-06-25 17:01:00,86.8,72.2,29.98,SSW,212,6.0,6.0,62,0.00,,,0.00,Wunderground v.1.15,2013-06-25 21:01:00,
2013-06-25 17:11:00,86.7,72.6,29.98,SW,232,5.0,6.0,63,0.00,,,0.00,Wunderground v.1.15,2013-06-25 21:11:00,
2013-06-25 17:21:00,85.7,72.6,29.99,SW,227,5.0,5.0,65,0.00,,,0.00,Wunderground v.1.15,2013-06-25 21:21:00,
2013-06-25 17:31:00,85.4,72.3,29.99,SSW,199,6.0,7.0,65,0.00,,,0.00,Wunderground v.1.15,2013-06-25 21:31:00,
2013-06-25 17:41:00,83.2,70.7,29.99,SSW,202,5.0,11.0,66,0.00,,,0.00,Wunderground v.1.15,2013-06-25 21:41:00,
2013-06-25 17:51:00,79.4,71.6,29.98,South,190,6.0,6.0,77,0.00,,,0.00,Wunderground v.1.15,2013-06-25 21:51:00,
2013-06-25 18:01:00,81.6,72.9,29.99,SW,217,3.0,3.0,75,0.00,,,0.00,Wunderground v.1.15,2013-06-25 22:01:00,
2013-06-25 18:11:00,83.0,73.9,29.97,SSW,209,2.0,4.0,74,0.00,,,0.00,Wunderground v.1.15,2013-06-25 22:11:00,
2013-06-25 18:21:00,83.2,73.6,29.98,SSE,159,3.0,5.0,73,0.00,,,0.00,Wunderground v.1.15,2013-06-25 22:21:00,
2013-06-25 18:31:00,81.7,72.6,29.98,South,176,3.0,3.0,74,0.00,,,0.00,Wunderground v.1.15,2013-06-25 22:31:00,
2013-06-25 18:41:00,81.9,73.6,29.98,SE,144,1.0,4.0,76,0.00,,,0.00,Wunderground v.1.15,2013-06-25 22:41:00,
2013-06-25 18:51:00,82.3,74.7,29.97,South,187,3.0,3.0,78,0.00,,,0.00,Wunderground v.1.15,2013-06-25 22:51:00,
2013-06-25 19:01:00,81.8,74.3,29.97,SSE,148,2.0,2.0,78,0.00,,,0.00,Wunderground v.1.15,2013-06-25 23:01:00,
2013-06-25 19:11:00,81.8,74.3,29.98,East,91,2.0,3.0,78,0.00,,,0.00,Wunderground v.1.15,2013-06-25 23:11:00,
2013-06-25 19:21:00,81.1,73.6,29.98,ENE,76,3.0,3.0,78,0.00,,,0.00,Wunderground v.1.15,2013-06-25 23:21:00,
2013-06-25 19:31:00,80.6,73.9,29.99,ESE,121,2.0,2.0,80,0.00,,,0.00,Wunderground v.1.15,2013-06-25 23:31:00,
2013-06-25 19:41:00,80.9,73.8,29.99,ESE,122,2.0,3.0,79,0.00,,,0.00,Wunderground v.1.15,2013-06-25 23:41:00,
2013-06-25 19:51:00,80.5,73.8,29.99,SSE,161,2.0,3.0,80,0.00,,,0.00,Wunderground v.1.15,2013-06-25 23:51:00,
2013-06-25 20:01:00,79.9,73.5,29.99,SSE,152,3.0,3.0,81,0.00,,,0.00,Wunderground v.1.15,2013-06-26 00:01:00,
2013-06-25 20:11:00,79.1,73.1,29.99,SSE,155,2.0,2.0,82,0.00,,,0.00,Wunderground v.1.15,2013-06-26 00:11:00,
2013-06-25 20:21:00,78.4,72.4,29.99,South,176,1.0,1.0,82,0.00,,,0.00,Wunderground v.1.15,2013-06-26 00:21:00,
2013-06-25 20:31:00,77.7,73.2,29.99,South,180,2.0,2.0,86,0.00,,,0.00,Wunderground v.1.15,2013-06-26 00:31:00,
2013-06-25 20:41:00,77.0,72.5,29.99,SW,215,2.0,3.0,86,0.00,,,0.00,Wunderground v.1.15,2013-06-26 00:41:00,
2013-06-25 20:51:00,76.6,72.4,29.99,SE,132,3.0,4.0,87,0.00,,,0.00,Wunderground v.1.15,2013-06-26 00:51:00,
2013-06-25 21:01:00,75.4,71.6,29.98,ESE,120,3.0,3.0,88,0.00,,,0.00,Wunderground v.1.15,2013-06-26 01:01:00,
2013-06-25 21:11:00,74.7,71.2,29.99,South,174,1.0,1.0,89,0.00,,,0.00,Wunderground v.1.15,2013-06-26 01:11:00,
2013-06-25 21:21:00,74.4,71.3,29.99,South,182,2.0,4.0,90,0.00,,,0.00,Wunderground v.1.15,2013-06-26 01:21:00,
2013-06-25 21:31:00,74.4,71.3,29.99,SSE,149,2.0,2.0,90,0.00,,,0.00,Wunderground v.1.15,2013-06-26 01:31:00,
2013-06-25 21:41:00,74.4,70.9,30.00,South,172,1.0,1.0,89,0.00,,,0.00,Wunderground v.1.15,2013-06-26 01:41:00,
2013-06-25 21:51:00,74.4,70.9,29.99,South,179,1.0,1.0,89,0.00,,,0.00,Wunderground v.1.15,2013-06-26 01:51:00,
2013-06-25 22:01:00,74.4,70.9,30.00,SSE,149,1.0,1.0,89,0.00,,,0.00,Wunderground v.1.15,2013-06-26 02:01:00,
2013-06-25 22:11:00,74.2,70.4,30.00,SSW,207,2.0,2.0,88,0.00,,,0.00,Wunderground v.1.15,2013-06-26 02:11:00,
2013-06-25 22:21:00,74.1,70.3,30.00,SSW,207,0.0,0.0,88,0.00,,,0.00,Wunderground v.1.15,2013-06-26 02:21:00,
2013-06-25 22:31:00,73.6,70.2,30.00,SSW,207,0.0,0.0,89,0.00,,,0.00,Wunderground v.1.15,2013-06-26 02:31:00,
2013-06-25 22:41:00,73.3,70.2,30.00,SW,217,1.0,1.0,90,0.00,,,0.00,Wunderground v.1.15,2013-06-26 02:41:00,
2013-06-25 22:51:00,73.3,70.2,30.00,SW,217,0.0,0.0,90,0.00,,,0.00,Wunderground v.1.15,2013-06-26 02:51:00,
2013-06-25 23:01:00,73.1,70.0,30.00,SW,217,0.0,0.0,90,0.00,,,0.00,Wunderground v.1.15,2013-06-26 03:01:00,
2013-06-25 23:11:00,73.1,70.3,30.00,SSW,211,0.0,1.0,91,0.00,,,0.00,Wunderground v.1.15,2013-06-26 03:11:00,
2013-06-25 23:21:00,72.9,70.1,30.01,SSE,155,1.0,1.0,91,0.00,,,0.00,Wunderground v.1.15,2013-06-26 03:21:00,
2013-06-25 23:31:00,72.4,69.9,30.00,SSE,155,0.0,0.0,92,0.00,,,0.00,Wunderground v.1.15,2013-06-26 03:31:00,
2013-06-25 23:41:00,72.5,69.7,30.00,South,185,0.0,0.0,91,0.00,,,0.00,Wunderground v.1.15,2013-06-26 03:41:00,
2013-06-25 23:51:00,72.6,69.8,30.00,SSW,200,1.0,1.0,91,0.00,,,0.00,Wunderground v.1.15,2013-06-26 03:51:00,